FW6610 Weather Reports


Display with metric or nautical units.
time (UTC)temp
F
wind
direction
speed
MPH
gust
MPH
rain 1hr
in
rain 24hr
in
rain mn
in
humidity
%
barometer
mb
20210615030541 62 0 0.0 0.0 0.00 1.61 1.61 95 1010.1
20210615030101 62 0 0.0 0.0 0.00 1.61 1.61 95 1010.1
20210615025529 62 0 0.0 1.0 0.00 1.61 1.61 95 1010.2
20210615025028 62 0 0.0 1.0 0.00 1.61 1.61 95 1010.3
20210615024603 62 15 0.0 1.0 0.00 1.61 1.61 95 1010.2
20210615024032 62 16 1.0 1.0 0.00 1.61 1.61 95 1010.0
20210615023541 62 0 0.0 1.0 0.00 1.61 1.61 95 1010.1
20210615023054 62 0 0.0 1.0 0.00 1.61 1.61 95 1010.1
20210615022538 62 0 0.0 1.0 0.00 1.61 1.61 95 1010.0
20210615022034 62 0 0.0 1.0 0.00 1.61 1.61 95 1010.1
20210615021614 62 0 0.0 1.0 0.00 1.61 1.61 95 1010.0
20210615021027 62 303 0.0 1.0 0.00 1.61 1.61 95 1010.1
20210615020528 62 0 0.0 1.0 0.00 1.61 1.61 95 1010.1
20210615020056 62 0 0.0 1.0 0.00 1.61 1.61 95 1010.2
20210615015529 62 0 0.0 1.0 0.00 1.61 1.61 95 1010.4
20210615015029 62 303 0.0 1.0 0.00 1.61 1.61 95 1010.4
20210615014544 62 0 0.0 1.0 0.00 1.61 1.61 95 1010.1
20210615014029 62 0 0.0 1.0 0.00 1.61 1.61 95 1010.1
20210615013529 62 0 0.0 0.0 0.00 1.61 1.61 94 1009.9
20210615013136 62 0 0.0 0.0 0.00 1.61 1.61 94 1009.8
20210615012533 62 0 0.0 0.0 0.00 1.61 1.61 94 1009.9
20210615012033 62 0 0.0 1.0 0.00 1.61 1.61 94 1010.0
20210615011559 62 0 0.0 1.0 0.00 1.61 1.61 94 1010.1
20210615011033 62 0 0.0 1.0 0.00 1.61 1.61 94 1010.1
20210615010533 63 0 0.0 1.0 0.00 1.61 1.61 94 1010.2
20210615010130 63 0 0.0 0.0 0.00 1.61 1.61 94 1010.3
20210615005535 63 0 0.0 0.0 0.00 1.61 1.61 93 1010.1
20210615005037 63 0 0.0 1.0 0.00 1.61 1.61 93 1010.3
20210615004604 63 0 0.0 1.0 0.00 1.61 1.61 93 1010.3
20210615004032 63 0 0.0 3.0 0.00 1.61 1.61 94 1010.2
20210615003531 63 328 1.0 3.0 0.00 1.61 1.61 94 1010.2
20210615003133 63 325 0.0 2.0 0.00 1.61 1.61 94 1010.4
20210615002535 63 320 0.0 2.0 0.00 1.61 1.61 94 1010.4
20210615002032 63 314 0.0 1.0 0.00 1.61 1.61 94 1010.5
20210615001545 63 315 0.0 0.0 0.00 1.61 1.61 94 1010.0
20210615001028 63 0 0.0 0.0 0.00 1.61 1.61 94 1009.6
20210615000557 63 315 0.0 1.0 0.00 1.61 1.61 94 1009.7
20210615000052 63 314 0.0 1.0 0.00 1.61 1.61 94 1009.6
20210614235544 63 0 0.0 1.0 0.00 1.61 1.61 93 1009.3
20210614235039 63 0 0.0 1.0 0.00 1.61 1.61 93 1009.4
20210614234602 63 0 0.0 1.0 0.00 1.61 1.61 93 1009.6
20210614234029 63 360 0.0 1.0 0.00 1.61 1.61 93 1010.0
20210614233532 63 0 0.0 0.0 0.00 1.61 1.61 93 1010.3
20210614233042 63 0 0.0 1.0 0.00 1.61 1.61 93 1010.4
20210614232531 63 0 0.0 1.0 0.00 1.61 1.61 93 1010.6
20210614232027 63 360 0.0 1.0 0.00 1.61 1.61 92 1010.5
20210614231602 63 360 0.0 1.0 0.00 1.61 1.61 92 1010.5
20210614231029 63 360 0.0 1.0 0.00 1.61 1.61 92 1010.6
20210614230532 64 360 0.0 1.0 0.00 1.61 1.61 92 1010.5
20210614230041 64 0 0.0 1.0 0.00 1.61 1.61 91 1010.5
20210614225533 64 359 0.0 1.0 0.00 1.61 1.61 91 1010.6
20210614225028 64 0 0.0 0.0 0.00 1.61 1.61 92 1010.5
20210614224550 64 1 0.0 0.0 0.00 1.61 1.61 92 1010.3
20210614224028 64 1 0.0 1.0 0.00 1.61 1.61 91 1010.4
20210614223528 64 1 0.0 2.0 0.00 1.61 1.61 91 1010.3
20210614223123 64 1 0.0 2.0 0.00 1.61 1.61 90 1010.3
20210614222527 64 226 0.0 2.0 0.00 1.61 1.61 89 1010.3
20210614222037 64 0 0.0 2.0 0.00 1.61 1.61 89 1010.3
20210614221608 64 0 0.0 1.0 0.00 1.61 1.61 90 1010.2
20210614221028 64 170 0.0 1.0 0.00 1.61 1.61 89 1010.4
20210614220536 64 169 0.0 0.0 0.00 1.61 1.61 89 1010.4
20210614220111 65 0 0.0 0.0 0.00 1.61 1.61 89 1010.4
20210614215528 65 0 0.0 0.0 0.00 1.61 1.61 89 1010.4
20210614215034 65 0 0.0 0.0 0.00 1.61 1.61 90 1010.4
20210614214628 65 0 0.0 1.0 0.00 1.61 1.61 89 1010.5
20210614214031 65 170 0.0 1.0 0.00 1.61 1.61 89 1010.4
20210614213536 64 0 0.0 0.0 0.00 1.61 1.61 90 1010.6
20210614213049 64 0 0.0 1.0 0.00 1.61 1.61 90 1010.5
20210614212528 64 169 0.0 2.0 0.00 1.61 1.61 89 1010.5
20210614212036 64 169 0.0 2.0 0.00 1.61 1.61 89 1010.6
20210614211602 64 0 0.0 0.0 0.00 1.61 1.61 89 1010.5
20210614211027 64 0 0.0 0.0 0.00 1.61 1.61 89 1010.6
20210614210528 65 161 0.0 0.0 0.00 1.61 1.61 87 1010.7
20210614210147 65 0 0.0 2.0 0.00 1.61 1.61 87 1010.6
20210614205536 66 161 0.0 2.0 0.00 1.61 1.61 86 1010.7
20210614205029 66 124 0.0 1.0 0.00 1.61 1.61 87 1010.7
20210614204641 66 125 0.0 1.0 0.00 1.61 1.61 87 1010.8
20210614204027 65 0 0.0 1.0 0.00 1.61 1.61 86 1010.9
20210614203552 65 125 0.0 1.0 0.00 1.61 1.61 86 1010.9
20210614203101 65 0 0.0 1.0 0.00 1.61 1.61 87 1010.9
20210614202527 65 134 0.0 1.0 0.00 1.61 1.61 88 1011.1
20210614202036 65 134 0.0 1.0 0.00 1.61 1.61 88 1011.2
20210614201614 65 0 0.0 1.0 0.01 1.61 1.61 85 1011.2
20210614201034 65 146 0.0 1.0 0.01 1.61 1.61 88 1011.2
20210614200528 64 142 0.0 1.0 0.01 1.61 1.61 88 1011.3
20210614200056 64 77 0.0 2.0 0.01 1.61 1.61 88 1011.4
20210614195530 64 0 0.0 2.0 0.01 1.61 1.61 88 1011.5
20210614195029 64 117 0.0 1.0 0.01 1.61 1.61 87 1011.5
20210614194641 64 0 0.0 1.0 0.01 1.61 1.61 89 1011.5
20210614194026 64 162 0.0 1.0 0.01 1.61 1.61 90 1011.6
20210614193527 64 160 0.0 1.0 0.01 1.61 1.61 89 1011.6
20210614193117 63 0 0.0 1.0 0.01 1.61 1.61 89 1011.7
20210614192537 63 0 0.0 1.0 0.01 1.61 1.61 91 1011.7
20210614192029 63 162 0.0 1.0 0.00 1.60 1.60 90 1011.7
20210614191605 63 162 0.0 1.0 0.00 1.60 1.60 90 1011.9
20210614191028 63 162 0.0 1.0 0.00 1.60 1.60 89 1011.9
20210614190530 63 170 0.0 1.0 0.00 1.60 1.60 89 1012.1
20210614190119 63 236 0.0 1.0 0.00 1.60 1.60 89 1012.1
20210614185527 63 0 0.0 2.0 0.00 1.60 1.60 89 1012.0
20210614185028 63 237 0.0 2.0 0.00 1.60 1.60 87 1012.1
20210614184607 63 226 0.0 1.0 0.00 1.60 1.60 87 1012.2
20210614184027 63 0 0.0 1.0 0.00 1.60 1.60 86 1012.1
20210614183527 64 0 0.0 1.0 0.00 1.60 1.60 88 1012.2
20210614183053 63 270 0.0 1.0 0.00 1.60 1.60 87 1012.3
20210614182528 63 0 0.0 1.0 0.00 1.60 1.60 88 1012.2
20210614182029 63 218 0.0 3.0 0.00 1.60 1.60 88 1012.0
20210614181550 63 155 0.0 3.0 0.00 1.60 1.60 88 1012.0
20210614181032 64 144 1.0 2.0 0.00 1.60 1.60 87 1012.1
20210614180527 64 213 0.0 2.0 0.00 1.60 1.60 86 1012.1
20210614180038 64 11 0.0 2.0 0.00 1.60 1.60 89 1012.3
20210614175527 64 158 0.0 4.0 0.00 1.60 1.60 91 1012.2
20210614175029 63 128 1.0 4.0 0.00 1.60 1.60 91 1012.3
20210614174548 62 134 1.0 4.0 0.00 1.60 1.60 92 1012.7
20210614174032 62 180 1.0 4.0 0.00 1.60 1.60 91 1012.7
20210614173537 62 136 0.0 2.0 0.00 1.60 1.60 92 1012.7
20210614173055 62 139 0.0 2.0 0.00 1.60 1.60 91 1012.7
20210614172527 62 150 0.0 1.0 0.00 1.60 1.60 91 1012.5
20210614172027 62 149 0.0 1.0 0.00 1.60 1.60 91 1012.7
20210614171545 62 0 0.0 0.0 0.00 1.60 1.60 91 1012.7
20210614171027 62 172 0.0 1.0 0.00 1.60 1.60 92 1012.7
20210614170529 62 0 0.0 2.0 0.00 1.60 1.60 91 1012.8
20210614170058 62 112 1.0 4.0 0.00 1.60 1.60 91 1012.8
20210614165527 62 102 0.0 4.0 0.00 1.60 1.60 91 1013.0
20210614165026 62 165 0.0 2.0 0.00 1.60 1.60 91 1013.2
20210614164621 62 174 0.0 2.0 0.00 1.60 1.60 92 1013.2
20210614164033 62 154 0.0 2.0 0.00 1.60 1.60 92 1013.2
20210614163527 62 142 0.0 1.0 0.00 1.60 1.60 93 1013.3
20210614163215 62 138 0.0 1.0 0.00 1.60 1.60 93 1013.3
20210614162527 62 234 0.0 1.0 0.01 1.60 1.60 94 1013.3
20210614162027 62 63 0.0 1.0 0.02 1.60 1.60 93 1013.4
20210614161545 62 0 0.0 1.0 0.02 1.60 1.60 93 1013.3
20210614161027 62 113 0.0 1.0 0.03 1.60 1.60 94 1013.3
20210614160551 62 172 0.0 2.0 0.12 1.60 1.60 94 1013.3
20210614160118 61 203 0.0 3.0 0.28 1.60 1.60 95 1013.3
20210614155539 61 0 0.0 3.0 0.34 1.60 1.60 95 1013.3
20210614155030 61 0 0.0 2.0 0.35 1.60 1.60 95 1013.2
20210614154636 61 196 0.0 2.0 0.35 1.60 1.60 95 1013.5
20210614154027 61 165 0.0 2.0 0.35 1.60 1.60 95 1013.3
20210614153527 61 133 0.0 2.0 0.35 1.60 1.60 95 1013.4
20210614153100 61 169 0.0 2.0 0.36 1.60 1.60 95 1013.3
20210614152527 61 83 0.0 1.0 0.35 1.59 1.59 95 1013.3
20210614152027 61 0 0.0 1.0 0.34 1.58 1.58 95 1013.3
20210614151634 61 0 0.0 2.0 0.34 1.58 1.58 95 1013.2
20210614151032 60 138 0.0 2.0 0.33 1.57 1.57 95 1013.1
20210614150527 61 128 0.0 2.0 0.23 1.47 1.47 95 1013.1
20210614150143 61 155 0.0 3.0 0.08 1.31 1.31 95 1013.6
20210614145535 61 0 0.0 3.0 0.04 1.26 1.26 95 1013.5
20210614145026 61 249 0.0 3.0 0.03 1.25 1.25 94 1013.3
20210614144601 61 0 0.0 0.0 0.03 1.25 1.25 95 1013.3
20210614144039 61 69 0.0 0.0 0.03 1.25 1.25 95 1013.2
20210614143527 61 0 0.0 0.0 0.04 1.25 1.25 95 1013.2
20210614143055 61 0 0.0 0.0 0.04 1.24 1.24 95 1013.3
20210614142542 61 0 0.0 1.0 0.04 1.24 1.24 95 1013.3
20210614142028 61 69 0.0 1.0 0.07 1.24 1.24 94 1013.3
20210614141550 61 71 0.0 1.0 0.08 1.24 1.24 95 1013.4
20210614141027 61 0 0.0 1.0 0.08 1.24 1.24 95 1013.1
20210614140531 61 0 0.0 1.0 0.08 1.24 1.24 95 1013.2
20210614140107 61 71 0.0 1.0 0.07 1.23 1.23 95 1013.5
20210614135534 60 0 0.0 1.0 0.06 1.22 1.22 95 1013.6
20210614135031 60 0 0.0 1.0 0.06 1.22 1.22 95 1013.5
20210614134709 60 71 0.0 1.0 0.06 1.22 1.22 95 1013.6
20210614134034 60 0 0.0 1.0 0.06 1.22 1.22 94 1013.5
20210614133529 60 133 0.0 1.0 0.05 1.21 1.21 94 1013.4
20210614133115 61 133 0.0 1.0 0.04 1.20 1.20 95 1013.5
20210614132528 61 0 0.0 1.0 0.04 1.20 1.20 95 1013.4
20210614132033 61 0 0.0 1.0 0.01 1.16 1.16 95 1013.3
20210614131633 60 230 0.0 1.0 0.02 1.16 1.16 94 1013.3
20210614131026 61 225 0.0 1.0 0.03 1.16 1.16 95 1013.3
20210614130541 61 0 0.0 1.0 0.03 1.16 1.16 95 1013.0
20210614130110 60 0 0.0 1.0 0.04 1.16 1.16 95 1013.0
20210614125527 60 224 0.0 1.0 0.05 1.16 1.16 95 1013.0
20210614125027 60 0 0.0 1.0 0.06 1.16 1.16 95 1013.0
20210614124550 59 0 0.0 1.0 0.07 1.16 1.16 95 1013.1
20210614124035 59 0 0.0 1.0 0.10 1.16 1.16 95 1013.0
20210614123530 59 0 0.0 1.0 0.15 1.16 1.16 95 1013.0
20210614123103 59 0 0.0 1.0 0.21 1.16 1.16 95 1012.9
20210614122528 59 0 0.0 1.0 0.32 1.15 1.15 95 1012.9
20210614122038 59 133 0.0 1.0 0.47 1.15 1.15 95 1012.8
20210614121605 59 0 0.0 1.0 0.72 1.14 1.14 95 1012.8
20210614121027 59 0 0.0 1.0 0.87 1.13 1.13 95 1012.9
20210614120530 59 0 0.0 2.0 0.98 1.12 1.12 95 1013.1
20210614120054 59 269 0.0 2.0 1.10 1.12 1.12 95 1013.1
20210614115526 59 66 0.0 2.0 1.11 1.11 1.11 95 1012.5
20210614115031 59 0 1.0 2.0 1.10 1.10 1.10 94 1012.6
20210614114549 59 282 0.0 1.0 1.09 1.09 1.09 94 1013.0
20210614114036 59 124 0.0 1.0 1.04 1.04 1.04 94 1012.8
20210614113548 59 150 0.0 4.0 1.00 1.00 1.00 94 1012.9
20210614113109 59 0 1.0 4.0 0.93 0.93 0.93 94 1013.1
20210614112527 59 180 1.0 4.0 0.82 0.82 0.82 94 1013.6
20210614112026 59 161 2.0 3.0 0.65 0.65 0.65 93 1013.8
20210614111547 59 122 0.0 1.0 0.40 0.40 0.40 92 1014.0
20210614111027 60 0 0.0 8.0 0.24 0.24 0.24 91 1013.8
20210614110527 60 0 2.0 8.0 0.13 0.13 0.13 90 1013.7
20210614110048 60 302 2.0 6.0 0.00 0.00 0.00 90 1013.6
20210614105531 60 302 1.0 1.0 0.00 0.00 0.00 90 1013.0
20210614105027 60 207 0.0 1.0 0.00 0.00 0.00 90 1012.5
20210614104634 60 150 0.0 1.0 0.00 0.00 0.00 90 1012.5
20210614104027 60 0 0.0 0.0 0.00 0.00 0.00 91 1012.4
20210614103540 60 0 0.0 0.0 0.00 0.00 0.00 91 1012.2
20210614103059 60 149 0.0 0.0 0.00 0.00 0.00 91 1012.2
20210614102534 60 0 0.0 0.0 0.00 0.00 0.00 91 1011.9
20210614102028 60 0 0.0 0.0 0.00 0.00 0.00 91 1012.0
20210614101537 60 0 0.0 0.0 0.00 0.00 0.00 91 1012.1
20210614101027 60 0 0.0 0.0 0.00 0.00 0.00 91 1012.1
20210614100528 60 0 0.0 0.0 0.00 0.00 0.00 91 1012.0
20210614100106 60 0 0.0 0.0 0.00 0.00 0.00 90 1012.1
20210614095527 60 150 0.0 0.0 0.00 0.00 0.00 90 1012.2
20210614095032 60 0 0.0 0.0 0.00 0.00 0.00 90 1012.4
20210614094606 60 0 0.0 0.0 0.00 0.00 0.00 90 1012.4
20210614094042 60 0 0.0 0.0 0.00 0.00 0.00 90 1012.3
20210614093547 60 0 0.0 0.0 0.00 0.00 0.00 90 1012.4
20210614093127 60 0 0.0 0.0 0.00 0.00 0.00 90 1012.4
20210614092527 59 0 0.0 0.0 0.00 0.00 0.00 91 1012.7
20210614092027 59 0 0.0 0.0 0.00 0.00 0.00 91 1012.6
20210614091548 59 0 0.0 0.0 0.00 0.00 0.00 91 1012.5
20210614091031 59 0 0.0 0.0 0.00 0.00 0.00 92 1012.5
20210614090534 59 0 0.0 0.0 0.00 0.00 0.00 92 1012.3
20210614090155 59 0 0.0 0.0 0.00 0.00 0.00 92 1012.5
20210614085553 59 0 0.0 0.0 0.00 0.00 0.00 92 1012.6
20210614085029 59 150 0.0 0.0 0.00 0.00 0.00 92 1012.5
20210614084620 59 0 0.0 0.0 0.00 0.00 0.00 92 1012.3
20210614084027 59 0 0.0 0.0 0.00 0.00 0.00 92 1012.2
20210614083527 59 0 0.0 0.0 0.00 0.00 0.00 92 1012.4
20210614083122 59 0 0.0 0.0 0.00 0.00 0.00 92 1012.4
20210614082528 59 0 0.0 0.0 0.00 0.00 0.00 92 1012.4
20210614082027 59 0 0.0 0.0 0.00 0.00 0.00 92 1012.6
20210614081603 59 0 0.0 0.0 0.00 0.00 0.00 92 1012.4
20210614081030 59 0 0.0 0.0 0.00 0.00 0.00 92 1012.6
20210614080526 59 0 0.0 0.0 0.00 0.00 0.00 92 1012.7
20210614080125 59 0 0.0 0.0 0.00 0.00 0.00 91 1012.7
20210614075528 59 0 0.0 0.0 0.00 0.00 0.00 91 1012.6
20210614075040 59 0 0.0 0.0 0.00 0.00 0.00 91 1012.6
20210614074610 59 0 0.0 0.0 0.00 0.00 0.00 92 1012.6
20210614074026 59 0 0.0 0.0 0.00 0.00 0.00 93 1012.7
20210614073527 59 0 0.0 0.0 0.00 0.00 0.00 93 1012.8
20210614073053 59 0 0.0 0.0 0.00 0.00 0.00 93 1012.6
20210614072532 59 0 0.0 0.0 0.00 0.00 0.00 93 1012.7
20210614072034 59 0 0.0 0.0 0.00 0.00 0.00 93 1012.7
20210614071558 58 0 0.0 0.0 0.00 0.00 0.00 93 1012.7
20210614071028 58 0 0.0 0.0 0.00 0.00 0.00 93 1012.6
20210614070538 58 0 0.0 0.0 0.00 0.00 0.00 93 1012.6
20210614070109 58 150 0.0 0.0 0.00 0.00 0.00 92 1012.7
20210614065531 58 0 0.0 0.0 0.00 0.00 0.00 93 1012.4
20210614065032 58 0 0.0 0.0 0.00 0.00 0.00 93 1012.5
20210614064608 58 0 0.0 0.0 0.00 0.00 0.00 93 1012.7
20210614064038 58 0 0.0 0.0 0.00 0.00 0.00 92 1012.7
20210614063527 58 0 0.0 0.0 0.00 0.00 0.00 92 1012.8
20210614063114 58 0 0.0 0.0 0.00 0.00 0.00 92 1012.9
20210614062532 58 0 0.0 0.0 0.00 0.00 0.00 91 1012.6
20210614062055 58 0 0.0 0.0 0.00 0.00 0.00 90 1012.5
20210614061623 59 0 0.0 0.0 0.00 0.00 0.00 90 1012.4
20210614061029 59 0 0.0 0.0 0.00 0.00 0.00 90 1012.4
20210614060538 59 0 0.0 0.0 0.00 0.00 0.00 90 1012.4
20210614060120 60 0 0.0 0.0 0.00 0.00 0.00 90 1012.4
20210614055527 60 0 0.0 0.0 0.00 0.00 0.00 90 1012.4
20210614055028 60 0 0.0 0.0 0.00 0.00 0.00 89 1012.6
20210614054657 60 0 0.0 0.0 0.00 0.00 0.00 89 1012.7
20210614054026 60 0 0.0 0.0 0.00 0.00 0.00 89 1012.7
20210614053528 60 0 0.0 0.0 0.00 0.00 0.00 89 1012.7
20210614053045 60 0 0.0 0.0 0.00 0.00 0.00 88 1012.7
20210614052527 60 150 0.0 0.0 0.00 0.00 0.00 88 1012.6
20210614052026 61 0 0.0 0.0 0.00 0.00 0.00 88 1012.6
20210614051600 61 150 0.0 0.0 0.00 0.00 0.00 87 1012.5
20210614051034 61 150 0.0 0.0 0.00 0.00 0.00 87 1012.5
20210614050526 61 150 0.0 0.0 0.00 0.00 0.00 87 1012.6
20210614050039 61 150 0.0 1.0 0.00 0.00 0.00 86 1012.6
20210614045528 61 0 0.0 1.0 0.00 0.00 0.00 86 1012.6
20210614045026 62 0 0.0 1.0 0.00 0.00 0.00 86 1012.5
20210614044552 62 132 0.0 1.0 0.00 0.00 0.00 85 1012.5
20210614044029 62 132 0.0 1.0 0.00 0.00 0.00 85 1012.7
20210614043540 62 0 0.0 1.0 0.00 0.00 0.00 84 1012.8
20210614043110 62 132 0.0 1.0 0.00 0.00 0.00 84 1012.9
20210614042526 62 145 0.0 1.0 0.00 0.00 0.00 84 1012.9
20210614042033 63 143 0.0 1.0 0.00 0.00 0.00 84 1012.9
20210614041542 63 144 0.0 1.0 0.00 0.00 0.00 83 1012.9
20210614041037 63 0 0.0 1.0 0.00 0.00 0.00 83 1012.9
20210614040534 63 0 0.0 1.0 0.00 0.00 0.00 82 1013.0
20210614040209 63 0 0.0 1.0 0.00 0.00 0.00 82 1013.1
20210614035527 64 143 0.0 1.0 0.00 0.00 0.00 81 1013.1
20210614035034 64 158 0.0 2.0 0.00 0.00 0.00 81 1013.1
20210614034613 64 160 0.0 2.0 0.00 0.00 0.00 81 1013.2
20210614034027 64 146 0.0 3.0 0.00 0.00 0.00 80 1013.1
20210614033529 64 146 0.0 3.0 0.00 0.00 0.00 80 1013.2
20210614033134 64 143 0.0 2.0 0.00 0.00 0.00 80 1013.1
20210614032528 64 136 0.0 1.0 0.00 0.00 0.00 80 1013.2
20210614032030 65 139 0.0 1.0 0.00 0.00 0.00 80 1013.3
20210614031617 65 163 0.0 1.0 0.00 0.00 0.00 80 1013.2
20210614031025 65 146 0.0 2.0 0.00 0.00 0.00 80 1013.2